Location: Bathurst
(33.4193°S, 149.5775°E)
Time: 07:10:45
(UTC+11:00)

OTV 5 (USA 277) - Visible Passes

Search period start: 20 February 2018 00:00
Search period end: 02 March 2018 00:00
Orbit: 404 x 417 km, 43.0° (Epoch: 07 September)

Date Brightness Start Highest point End Pass type
(mag) Time Alt. Az. Time Alt. Az. Time Alt. Az.
20 Feb ? 20:42:24 10° WSW 20:44:54 19° S 20:47:24 10° SE visible
20 Feb ? 22:20:40 10° SW 22:21:37 14° SSW 22:21:37 14° SSW visible
21 Feb ? 21:29:31 10° SW 21:31:47 16° S 21:32:48 15° SSE visible
22 Feb ? 20:38:16 10° SW 20:40:30 16° S 20:42:44 10° SE visible
22 Feb ? 22:15:43 10° SW 22:16:41 16° SSW 22:16:41 16° SSW visible
23 Feb ? 21:24:43 10° SW 21:27:21 20° SSE 21:27:49 20° SSE visible
24 Feb ? 20:33:40 10° SW 20:36:06 18° S 20:38:31 10° SE visible
24 Feb ? 22:10:39 10° SW 22:11:42 18° SW 22:11:42 18° SW visible
25 Feb ? 21:19:41 10° SW 21:22:49 32° SSE 21:22:52 32° SSE visible
26 Feb ? 20:28:43 10° SW 20:31:38 25° SSE 20:34:05 12° ESE visible
26 Feb ? 22:05:46 10° WSW 22:06:49 18° WSW 22:06:49 18° WSW visible
27 Feb ? 21:14:41 10° WSW 21:18:05 73° SSE 21:18:05 73° SSE visible
28 Feb ? 20:23:40 10° SW 20:27:00 46° SSE 20:29:24 17° E visible
28 Feb ? 22:01:24 10° W 22:02:09 14° W 22:02:09 14° W visible
01 Mar ? 21:09:59 10° WSW 21:13:12 39° NW 21:13:33 38° NNW visible
